SCP
0 0 0 0 0 0 0 0 0 0 0 0 0 0 0 0 0 0 0 0 0 0 0 0 0 0 0 0 0 0 0 0 0 0 0 0 0 0
0 0 0 0 0 0 0 0 0 0 0 0 0 0 0 0 0 0 0 0 0 0 0 0 0 0 0 0 0 0 0 0 0 0 0 0 0 0
0 0 0 0 0 0 0 0 0 0 0 0 0 0 0 0 0 0 0 0 0 0 0 0 0 0 0 0 0 0 0 0 0 0 0 0 0 0
0 0 0 0 0 0 0 0 0 0 0 0 0 0 0 0 0 0 0 0 0 0 0 0 0 0 0 0 0 0 0 0 0 0 0 0 0 0
0 0 0 0 0 0 0 0 0 0 0 0 0 0 0 0 0 0 0 0 0 0 0 0 0 0 0 0 0 0 0 0 0 0 0 0 0 0
0 0 0 0 0 0 0 0 0 0 0 0 0 0 0 0 0 0 0 0 0 0 0 0 0 0 0 0 0 0 0 0 0 0 0 0 0 0
0 0 0 0 0 0 0 0 0 0 0 0 0 0 0 0 0 0 0 0 0 0 0 0 0 0 0 0 0 0 0 0 0 0 0 0 0 0
0 0 0 0 0 0 -0 -0 0 0 0 0 0 0 0 0 0 0 0 0 0 0 0 0 0 0 0 0 0 0 0 0 0 0 0 0 0 0
0 0 0 0 0 0 0 0 0 0 0 0 0 0 0 0 0 0 0 0 0 0 0 0 0 0 0 0 0 0 0 0 0 0 0 0 0 0
0 0 0 0 0 0 0 0 0 0 0 0 0 0 0 0 0 0 0 0 0 0 0 0 0 0 0 0 0 0 0 0 0 0 0 0 0 0
0 0 0 0 -0 -0 0 0 0 0 0 0 0 0 0 0 0 0 0 0 0 0 0 0 0 0 0 0 0 0 0 0 0 0 0 0 0 0
0 0 -0 0 -0 0 0 0 0 0 0 0 0 0 0 0 0 0 0 0 0 0 0 0 0 0 0 0 0 0 0 0 0 0 0 0 0 0
0 0 0 0 -0 0 0 0 0 0 0 0 0 -0 0 0 0 0 0 0 0 0 0 0 0 0 0 0 0 0 0 0 0 0 0 0 0 0
-0 0 0 0 0 0 0 0 0 0 0 0 -0 -0 0 0 0 0 0 0 0 0 0 0 0 0 0 0 0 0 0 0 0 0 0 0 0 0
0 0 0 0 0 0 0 0 0 0 0 0 -0 -0 -0 -0 0 0 0 0 0 0 0 0 0 0 0 0 0 0 0 0 0 0 0 0 0 0
0 0 0 0 0 0 0 0 0 0 0 -0 -0 -0 -0 0 0 0 0 0 0 -0 0 0 0 0 0 0 0 0 0 0 0 0 0 0 0 0
0 0 0 0 0 0 0 0 0 0 -0 -0 -0 -0 0 0 0 -0 -0 -0 -0 -0 0 0 0 0 0 0 0 0 0 0 0 0 0 0 0 0
0 0 0 0 0 0 0 0 0 -0 0 0 0 0 0 0 0 0 0 0 -0 -0 -0 0 0 0 0 0 0 0 0 0 0 0 0 0 0 0
0 0 0 0 0 0 0 0 -0 0 -0 0 -0 -0 -0 -0 -0 -0 -0 -0 0 0 -0 0 0 0 0 0 0 0 0 0 0 0 0 0 0 0
0 0 0 0 0 0 0 -0 -0 0 -0 -0 -0 -0 -0 -0 -0 0 0 0 0 -0 -0 -0 0 0 0 0 0 0 0 0 0 0 0 0 0 0
0 0 0 0 0 0 0 0 -0 -0 -0 -0 0 -0 -0 -0 -0 0 0 -0 0 0 0 0 0 0 0 0 0 0 0 0 0 0 0 0 0 0
0 0 0 0 0 0 -0 0 -0 -0 0 -0 -0 -0 -0 -0 -0 -0 0 0 0 0 0 0 0 0 0 0 0 0 0 0 0 0 0 0 0 0
0 0 0 0 0 0 0 0 -0 -0 -0 0 -0 -0 -0 -0 -0 0 0 0 0 0 -0 0 0 0 0 0 0 0 0 0 0 0 0 0 0 0
Wind_Speed_500mb
57 58 60 60 60 60 61 61 52 67 73 77 46 38 48 58 58 54 47 45 46 50 53 54 54 53 53 52 52 58 62 49 45 45 43 50 65 71
57 58 60 61 60 60 61 62 64 60 70 84 47 46 47 52 55 56 48 53 55 51 51 52 51 51 52 53 54 54 52 57 57 50 48 49 58 68
57 58 60 57 59 61 61 59 60 53 63 102 58 56 57 55 50 50 51 51 50 52 52 52 53 53 52 51 53 55 56 55 56 55 54 55 53 64
57 56 59 56 58 52 52 53 52 55 64 76 68 60 55 51 57 54 52 50 49 51 54 58 59 60 58 56 55 57 61 60 53 57 53 57 55 57
59 60 61 58 56 54 55 54 54 56 55 57 71 60 55 49 50 51 48 50 51 53 49 53 57 54 52 55 56 56 56 61 64 65 63 58 56 47
65 66 60 53 55 58 57 57 53 57 56 60 66 65 49 46 49 46 43 42 42 42 43 46 52 56 55 54 56 56 57 56 70 73 73 69 68 58
58 51 53 54 55 55 61 63 55 60 59 61 60 48 53 49 53 44 44 52 44 37 41 38 42 48 53 52 55 56 58 59 58 76 78 77 75 73
57 54 50 56 53 56 54 50 50 56 51 46 34 38 48 48 43 38 43 43 39 32 30 33 31 43 50 57 58 59 56 59 60 65 76 84 82 80
58 58 58 56 49 52 55 53 52 51 49 49 50 52 48 47 45 48 49 50 54 48 46 43 34 44 47 46 56 59 61 59 57 58 62 64 75 80
49 47 50 50 51 52 51 50 55 55 50 47 52 53 50 51 51 57 57 57 59 57 46 58 45 50 46 50 60 59 60 64 67 65 65 62 63 62
49 48 45 50 51 48 53 59 52 52 52 56 53 57 61 62 65 69 77 67 69 69 50 50 53 52 51 47 48 62 69 66 64 64 66 68 70 67
50 50 47 45 48 45 41 50 53 56 45 45 48 57 60 70 65 61 66 50 66 56 65 53 54 51 47 54 50 45 60 67 70 69 68 67 68 66
52 48 45 45 38 43 44 48 49 50 56 55 60 59 53 37 33 39 50 56 58 68 46 40 42 43 54 44 34 35 49 57 65 67 64 62 64 71
47 46 53 47 46 42 43 55 55 47 49 51 54 46 34 20 18 20 35 47 52 59 54 48 53 51 52 48 56 50 48 43 58 66 60 53 49 53
45 48 47 45 43 59 62 47 41 46 50 49 33 33 34 29 29 28 26 29 36 47 54 55 59 65 75 73 64 55 38 50 50 65 60 57 53 53
46 48 58 57 53 50 45 41 36 32 35 31 36 40 41 41 40 35 32 30 37 43 41 45 48 57 59 74 65 56 48 33 39 60 59 58 60 63
48 58 57 48 41 39 37 34 29 28 34 35 37 40 43 43 44 40 37 34 41 44 36 38 34 36 44 60 54 39 39 50 35 38 46 51 57 62
49 49 43 40 39 40 39 35 37 33 30 33 35 39 39 33 31 32 35 40 43 45 47 39 34 33 40 38 41 40 40 38 42 43 40 34 48 50
39 41 44 46 40 44 42 35 37 34 34 30 33 35 28 32 36 42 42 41 47 51 56 43 44 47 45 49 55 54 49 47 47 55 48 42 35 29
39 41 44 44 43 41 40 34 34 33 32 31 31 28 31 36 40 45 50 50 50 52 61 60 59 62 62 60 44 44 58 49 52 48 42 43 39 29
43 45 41 44 39 38 36 34 33 35 32 32 30 28 30 37 47 54 55 58 44 46 54 66 77 60 54 51 50 48 34 50 53 48 47 38 30 26
44 45 44 42 39 37 34 32 33 31 32 28 24 23 27 38 52 56 56 49 52 54 57 55 66 60 61 59 56 49 34 30 44 46 46 41 26 23
47 48 46 43 38 35 31 32 30 30 28 25 19 19 28 41 49 60 45 46 37 19 30 47 61 66 64 53 55 41 36 30 36 43 49 48 48 39
Wind_Direction_500mb
287 286 284 283 281 279 277 274 271 280 285 287 282 279 286 291 289 288 274 262 264 264 261 258 256 254 251 247 245 242 238 233 236 240 236 234 229 227
289 287 286 285 284 281 278 274 269 265 274 280 282 280 277 279 280 278 267 268 269 264 263 260 256 253 251 249 244 242 241 238 236 237 236 237 235 232
291 290 287 288 287 287 283 276 270 263 265 278 281 282 279 277 273 270 270 265 265 263 260 255 253 250 248 245 244 238 238 241 238 230 233 233 237 235
293 289 289 289 290 286 285 278 270 267 267 275 281 279 276 277 279 272 269 269 265 264 261 258 255 253 250 246 243 241 238 235 234 223 227 231 233 232
293 291 290 291 287 288 284 279 277 275 270 270 277 279 278 277 278 280 274 271 267 264 257 250 249 246 245 243 242 240 240 236 227 221 217 228 233 231
293 291 290 287 286 287 282 280 282 273 281 271 281 285 280 280 278 276 275 271 277 266 260 255 248 249 247 242 240 238 238 237 227 223 224 228 233 239
297 295 290 288 287 281 278 289 293 289 286 283 281 283 282 275 281 282 274 283 277 271 261 254 252 252 248 242 241 238 238 238 234 229 229 232 238 243
292 290 287 288 287 286 285 283 282 284 284 280 279 279 283 280 281 277 272 274 269 267 255 261 262 249 246 244 245 240 238 236 236 232 232 234 239 244
290 292 290 287 286 286 285 285 284 278 276 277 277 275 276 279 276 271 268 263 259 258 270 267 259 257 252 248 246 244 241 238 237 237 235 234 237 241
296 290 292 287 285 288 292 292 293 286 278 276 274 275 272 271 270 264 262 259 260 261 252 258 260 261 268 265 243 235 235 236 238 238 237 235 234 238
294 299 293 291 288 287 283 284 293 288 287 279 271 273 274 273 273 272 259 251 252 255 250 249 259 260 260 258 253 236 235 237 236 238 238 237 236 241
298 299 288 298 285 289 296 293 288 287 289 292 286 284 283 285 268 255 257 262 248 249 257 248 262 261 249 250 254 250 237 238 238 239 240 238 235 235
309 306 300 307 302 294 289 294 299 301 296 285 284 287 296 293 278 252 244 247 250 253 250 257 250 245 242 250 254 247 237 238 237 235 236 237 236 231
308 309 315 311 303 296 296 294 296 291 279 281 281 281 294 287 293 274 249 247 249 253 255 241 262 248 247 249 248 245 238 240 238 229 230 229 223 216
313 313 306 300 297 302 302 300 290 279 280 283 281 280 275 281 283 276 265 262 261 253 251 250 252 252 254 247 237 237 233 251 238 217 222 220 215 215
320 311 309 307 303 302 300 305 302 276 289 283 274 275 276 281 281 274 273 266 272 271 264 249 254 268 247 220 229 233 236 218 220 217 224 226 225 226
313 307 311 314 313 313 311 308 313 289 277 282 279 279 280 283 281 277 271 270 274 268 262 246 254 236 224 221 224 214 224 218 217 213 217 226 230 230
312 311 316 312 318 311 312 307 303 303 287 277 280 286 285 283 287 287 276 270 268 258 251 245 239 229 219 225 210 210 214 220 219 210 213 222 231 234
321 319 321 322 298 314 312 303 298 297 300 281 282 285 281 284 288 289 287 279 264 252 249 243 230 227 218 215 219 217 219 221 216 213 220 228 236 240
328 324 319 319 310 314 306 304 295 293 292 291 283 277 284 292 296 298 298 287 279 257 244 241 237 227 223 221 220 230 225 228 221 218 219 223 234 240
329 324 323 320 314 308 302 299 290 285 286 287 280 282 295 307 312 318 311 307 294 268 247 229 230 233 231 224 222 230 237 226 219 216 218 227 230 241
329 327 327 323 315 308 302 295 288 283 282 272 272 284 308 318 323 325 329 325 314 287 260 230 220 220 212 216 219 223 225 217 214 219 223 223 216 224
335 334 333 327 316 309 299 293 286 279 276 268 269 290 315 328 336 337 339 338 310 277 237 204 202 208 207 212 207 209 210 213 215 217 217 214 215 215
Wind_Speed_850mb
57 58 60 60 60 60 61 61 52 67 73 77 46 38 48 58 58 54 47 45 46 50 53 54 54 53 53 52 52 58 62 49 45 45 43 50 65 71
57 58 60 61 60 60 61 62 64 60 70 84 47 46 47 52 55 56 48 53 55 51 51 52 51 51 52 53 54 54 52 57 57 50 48 49 58 68
57 58 60 57 59 61 61 59 60 53 63 102 58 56 57 55 50 50 51 51 50 52 52 52 53 53 52 51 53 55 56 55 56 55 54 55 53 64
57 56 59 56 58 52 52 53 52 55 64 76 68 60 55 51 57 54 52 50 49 51 54 58 59 60 58 56 55 57 61 60 53 57 53 57 55 57
59 60 61 58 56 54 55 54 54 56 55 57 71 60 55 49 50 51 48 50 51 53 49 53 57 54 52 55 56 56 56 61 64 65 63 58 56 47
65 66 60 53 55 58 57 57 53 57 56 60 66 65 49 46 49 46 43 42 42 42 43 46 52 56 55 54 56 56 57 56 70 73 73 69 68 58
58 51 53 54 55 55 61 63 55 60 59 61 60 48 53 49 53 44 44 52 44 37 41 38 42 48 53 52 55 56 58 59 58 76 78 77 75 73
57 54 50 56 53 56 54 50 50 56 51 46 34 38 48 48 43 38 43 43 39 32 30 33 31 43 50 57 58 59 56 59 60 65 76 84 82 80
58 58 58 56 49 52 55 53 52 51 49 49 50 52 48 47 45 48 49 50 54 48 46 43 34 44 47 46 56 59 61 59 57 58 62 64 75 80
49 47 50 50 51 52 51 50 55 55 50 47 52 53 50 51 51 57 57 57 59 57 46 58 45 50 46 50 60 59 60 64 67 65 65 62 63 62
49 48 45 50 51 48 53 59 52 52 52 56 53 57 61 62 65 69 77 67 69 69 50 50 53 52 51 47 48 62 69 66 64 64 66 68 70 67
50 50 47 45 48 45 41 50 53 56 45 45 48 57 60 70 65 61 66 50 66 56 65 53 54 51 47 54 50 45 60 67 70 69 68 67 68 66
52 48 45 45 38 43 44 48 49 50 56 55 60 59 53 37 33 39 50 56 58 68 46 40 42 43 54 44 34 35 49 57 65 67 64 62 64 71
47 46 53 47 46 42 43 55 55 47 49 51 54 46 34 20 18 20 35 47 52 59 54 48 53 51 52 48 56 50 48 43 58 66 60 53 49 53
45 48 47 45 43 59 62 47 41 46 50 49 33 33 34 29 29 28 26 29 36 47 54 55 59 65 75 73 64 55 38 50 50 65 60 57 53 53
46 48 58 57 53 50 45 41 36 32 35 31 36 40 41 41 40 35 32 30 37 43 41 45 48 57 59 74 65 56 48 33 39 60 59 58 60 63
48 58 57 48 41 39 37 34 29 28 34 35 37 40 43 43 44 40 37 34 41 44 36 38 34 36 44 60 54 39 39 50 35 38 46 51 57 62
49 49 43 40 39 40 39 35 37 33 30 33 35 39 39 33 31 32 35 40 43 45 47 39 34 33 40 38 41 40 40 38 42 43 40 34 48 50
39 41 44 46 40 44 42 35 37 34 34 30 33 35 28 32 36 42 42 41 47 51 56 43 44 47 45 49 55 54 49 47 47 55 48 42 35 29
39 41 44 44 43 41 40 34 34 33 32 31 31 28 31 36 40 45 50 50 50 52 61 60 59 62 62 60 44 44 58 49 52 48 42 43 39 29
43 45 41 44 39 38 36 34 33 35 32 32 30 28 30 37 47 54 55 58 44 46 54 66 77 60 54 51 50 48 34 50 53 48 47 38 30 26
44 45 44 42 39 37 34 32 33 31 32 28 24 23 27 38 52 56 56 49 52 54 57 55 66 60 61 59 56 49 34 30 44 46 46 41 26 23
47 48 46 43 38 35 31 32 30 30 28 25 19 19 28 41 49 60 45 46 37 19 30 47 61 66 64 53 55 41 36 30 36 43 49 48 48 39
Wind_Direction_850mb
287 286 284 283 281 279 277 274 271 280 285 287 282 279 286 291 289 288 274 262 264 264 261 258 256 254 251 247 245 242 238 233 236 240 236 234 229 227
289 287 286 285 284 281 278 274 269 265 274 280 282 280 277 279 280 278 267 268 269 264 263 260 256 253 251 249 244 242 241 238 236 237 236 237 235 232
291 290 287 288 287 287 283 276 270 263 265 278 281 282 279 277 273 270 270 265 265 263 260 255 253 250 248 245 244 238 238 241 238 230 233 233 237 235
293 289 289 289 290 286 285 278 270 267 267 275 281 279 276 277 279 272 269 269 265 264 261 258 255 253 250 246 243 241 238 235 234 223 227 231 233 232
293 291 290 291 287 288 284 279 277 275 270 270 277 279 278 277 278 280 274 271 267 264 257 250 249 246 245 243 242 240 240 236 227 221 217 228 233 231
293 291 290 287 286 287 282 280 282 273 281 271 281 285 280 280 278 276 275 271 277 266 260 255 248 249 247 242 240 238 238 237 227 223 224 228 233 239
297 295 290 288 287 281 278 289 293 289 286 283 281 283 282 275 281 282 274 283 277 271 261 254 252 252 248 242 241 238 238 238 234 229 229 232 238 243
292 290 287 288 287 286 285 283 282 284 284 280 279 279 283 280 281 277 272 274 269 267 255 261 262 249 246 244 245 240 238 236 236 232 232 234 239 244
290 292 290 287 286 286 285 285 284 278 276 277 277 275 276 279 276 271 268 263 259 258 270 267 259 257 252 248 246 244 241 238 237 237 235 234 237 241
296 290 292 287 285 288 292 292 293 286 278 276 274 275 272 271 270 264 262 259 260 261 252 258 260 261 268 265 243 235 235 236 238 238 237 235 234 238
294 299 293 291 288 287 283 284 293 288 287 279 271 273 274 273 273 272 259 251 252 255 250 249 259 260 260 258 253 236 235 237 236 238 238 237 236 241
298 299 288 298 285 289 296 293 288 287 289 292 286 284 283 285 268 255 257 262 248 249 257 248 262 261 249 250 254 250 237 238 238 239 240 238 235 235
309 306 300 307 302 294 289 294 299 301 296 285 284 287 296 293 278 252 244 247 250 253 250 257 250 245 242 250 254 247 237 238 237 235 236 237 236 231
308 309 315 311 303 296 296 294 296 291 279 281 281 281 294 287 293 274 249 247 249 253 255 241 262 248 247 249 248 245 238 240 238 229 230 229 223 216
313 313 306 300 297 302 302 300 290 279 280 283 281 280 275 281 283 276 265 262 261 253 251 250 252 252 254 247 237 237 233 251 238 217 222 220 215 215
320 311 309 307 303 302 300 305 302 276 289 283 274 275 276 281 281 274 273 266 272 271 264 249 254 268 247 220 229 233 236 218 220 217 224 226 225 226
313 307 311 314 313 313 311 308 313 289 277 282 279 279 280 283 281 277 271 270 274 268 262 246 254 236 224 221 224 214 224 218 217 213 217 226 230 230
312 311 316 312 318 311 312 307 303 303 287 277 280 286 285 283 287 287 276 270 268 258 251 245 239 229 219 225 210 210 214 220 219 210 213 222 231 234
321 319 321 322 298 314 312 303 298 297 300 281 282 285 281 284 288 289 287 279 264 252 249 243 230 227 218 215 219 217 219 221 216 213 220 228 236 240
328 324 319 319 310 314 306 304 295 293 292 291 283 277 284 292 296 298 298 287 279 257 244 241 237 227 223 221 220 230 225 228 221 218 219 223 234 240
329 324 323 320 314 308 302 299 290 285 286 287 280 282 295 307 312 318 311 307 294 268 247 229 230 233 231 224 222 230 237 226 219 216 218 227 230 241
329 327 327 323 315 308 302 295 288 283 282 272 272 284 308 318 323 325 329 325 314 287 260 230 220 220 212 216 219 223 225 217 214 219 223 223 216 224
335 334 333 327 316 309 299 293 286 279 276 268 269 290 315 328 336 337 339 338 310 277 237 204 202 208 207 212 207 209 210 213 215 217 217 214 215 215